Lexington Weather

Lexington, Massachusetts, USA

25°F
2/26/2021 7:37am 
  • Lexington Conditions: Clear
  • Temperature: 25.0°F / -3.9°C 
  • Dew Point: 15.6°FIncreased 0.3°Fsince last hour.
  • Relative Humidity: 67%Increased 1.0% since last hour.
  • Wind: Calm, 10-min avg: Calm, gust: 1 mph
  • Barometer: 30.35 inRising 0.04  inHg/hr Rising Slowly
  • Visibility: 10 miles
  • Snow Today: 0.0 in
  •   

Regional Weather Roundup
for Boston / Norton, MA

        
000
ASUS41 KBOX 211805
RWRBOX

REGIONAL WEATHER ROUNDUP
NATIONAL WEATHER SERVICE BOSTON/NORTON MA
100 PM EST SUN FEB 21 2021

NOTE:  "FAIR" INDICATES FEW OR NO CLOUDS BELOW 12,000 FEET WITH NO 
SIGNIFICANT WEATHER AND/OR OBSTRUCTIONS TO VISIBILITY.

MAZALL-211900-
EASTERN MASSACHUSETTS
  
CITY           SKY/WX    TMP DP  RH WIND       PRES   REMARKS
BOSTON         MOSUNNY   31   9  39 N5        30.43S WCI  26          
6HR MIN TEMP:  20; 6HR MAX TEMP:  31;                                

BEVERLY        SUNNY     32   8  36 VRB3      30.41S                  
LAWRENCE       SUNNY     31  10  41 NW10      30.42F WCI  22          
BEDFORD        SUNNY     32   9  38 N16       30.41F WCI  21          
BLUE HILL        N/A     29  11  47 NW9       30.37S WCI  20          
NORWOOD        SUNNY     33  10  38 NW10      30.42F WCI  25          
MARSHFIELD     SUNNY     32  14  47 NW8G16    30.42F WCI  25          
PLYMOUTH       SUNNY     30  14  51 NW13      30.40F WCI  20          
TAUNTON        MOSUNNY   33  12  41 VRB7      30.41S WCI  27          
NEW BEDFORD    MOSUNNY   33  11  39 N10       30.41F WCI  25          
$$

MAZALL-211900-
CAPE COD AND THE ISLANDS
  
CITY           SKY/WX    TMP DP  RH WIND       PRES   REMARKS
FALMOUTH       PTSUNNY   28  14  54 N9G18     30.41R WCI  20          
HYANNIS        PTSUNNY   30  16  56 N14G24    30.39R WCI  19          
CHATHAM        CLOUDY    32  17  54 NW10G23   30.40S WCI  24          
PROVINCETOWN   PTSUNNY   33  17  51 NW15      30.41F WCI  23          
NANTUCKET      MOSUNNY   30  20  66 NW15G26   30.40S WCI  19          
MARTHAS VNYRD  MOSUNNY   30  16  56 N8G17     30.42S WCI  22          
$$
 
MAZALL-211900-
CENTRAL AND WESTERN MASSACHUSETTS
  
CITY           SKY/WX    TMP DP  RH WIND       PRES   REMARKS
WORCESTER      SUNNY     29   9  43 NW9       30.37F WCI  20          
6HR MIN TEMP:  16; 6HR MAX TEMP:  30;                                

FITCHBURG      SUNNY     32  11  41 N10       30.41F WCI  24          
ORANGE         SUNNY     30   7  37 N7G18     30.41F WCI  23          
SPRINGFIELD    NOT AVBL                                               
WESTFIELD      SUNNY     32  10  40 NW9G20    30.43F WCI  24          
NORTH ADAMS    SUNNY     27   8  44 W8        30.45F WCI  19          
PITTSFIELD     SUNNY     26   9  48 NW12G20   30.39F WCI  16          
$$
 
RIZALL-211900-
RHODE ISLAND
  
CITY           SKY/WX    TMP DP  RH WIND       PRES   REMARKS
PROVIDENCE     MOSUNNY   32  10  40 NW8       30.43F WCI  25          
6HR MIN TEMP:  22; 6HR MAX TEMP:  33;                                

NEWPORT        SUNNY     31  12  45 N9        30.42S WCI  23          
BLOCK ISLAND   SUNNY     31  13  47 VRB7      30.45S WCI  24          
SMITHFIELD     SUNNY     30  12  47 NW12G17   30.41S WCI  20          
WESTERLY       SUNNY     30   9  41 N10       30.44F WCI  21          
$$
 
CTZALL-211900-
CONNECTICUT
  
CITY           SKY/WX    TMP DP  RH WIND       PRES   REMARKS
BRADLEY INTL   MOSUNNY   32   9  38 NW7       30.45S WCI  26          
6HR MIN TEMP:  17; 6HR MAX TEMP:  32;                                

HARTFORD       SUNNY     33   9  36 N7        30.46F WCI  27          
BRIDGEPORT     SUNNY     34   8  33 NW13      30.48F WCI  25          
DANBURY        SUNNY     33   7  33 N16G24    30.47F WCI  23          
GROTON         SUNNY     32  11  41 NW8       30.45S WCI  25          
NEW HAVEN      SUNNY     35   9  33 NW7       30.46F WCI  29          
CHESTER        FAIR      34   7  32 N7G14     30.44F WCI  28          
MERIDEN        SUNNY     33   8  35 NW10G16   30.46F WCI  25          
WILLIMANTIC    SUNNY     31   9  39 N8G23     30.45S WCI  23          
OXFORD         SUNNY     31  10  41 NW9G18    30.44F WCI  23          
$$

MEZ002-015-021-024-NHZ003-005-008-011-012-014-VTZ005-008-211900-
NORTHERN NEW ENGLAND
  
CITY           SKY/WX    TMP DP  RH WIND       PRES   REMARKS
PORTLAND ME    MOSUNNY   31  10  41 NW14      30.38F WCI  21          
6HR MIN TEMP:  19; 6HR MAX TEMP:  31;                                

BANGOR ME      SUNNY     30   7  37 NW12      30.33F WCI  20          
CONCORD NH     SUNNY     29  10  45 NW9       30.40F WCI  20          
MANCHESTER NH  MOSUNNY   32  10  40 N13       30.40F WCI  22          
NASHUA NH      SUNNY     31  12  45 N12       30.42F WCI  22          
PORTSMOUTH NH  MOSUNNY   31   6  34 NW10      30.38F WCI  22          
JAFFREY NH     SUNNY     29   8  41 NW8       30.36F WCI  21          
KEENE NH       SUNNY     34   8  33 NW9       30.42F WCI  27          
BURLINGTON VT  MOSUNNY   28   5  37 CALM      30.47F                  
MT. WASHINGTON NOT AVBL                                               
$$

NYZ052-076-211900-
EASTERN NEW YORK
  
CITY           SKY/WX    TMP DP  RH WIND       PRES   REMARKS
ALBANY         MOSUNNY   27  10  49 N5        30.49F WCI  22          
6HR MIN TEMP:  13; 6HR MAX TEMP:  28;                                

NEW YORK CITY  MOSUNNY   35  12  38 NW10      30.51F WCI  27          
6HR MIN TEMP:  26; 6HR MAX TEMP:  35;                                

$$
 
ANZALL-211900-
MARINE OBSERVATIONS
  
STATION/POSITION TIME  TEMP    WIND        PRES    VSBY  WAVE
                       AIR SEA DIR/SP/G                  HT/PER
                 (UTC) (F)     (DEG/KT/KT) (MB)    (MI)  (FT/S)
BOSTON BUOY      1740   29 39  340/ 10/ 16 1030.7F
BUZZARDS BAY     1700          350/ 12/ 14 1031.4R
NANTUCKET SOUND  1740      38  350/ 16/ 21   N/A
MASS BAY-STELLWA 1704   29     330/ 14/ 19 1029.4S  1 3/4  6/11
ISLE OF SHOALS   1700   28     300/ 10/ 11 1029.5F
S OF BLOCK IS    1726      38                N/A           5/ 5
$$

......................KEY.........................
  SKY/WX - SKY CONDITION/PRESENT WEATHER
  TMP    - TEMPERATURE IN FAHRENHEIT
  DWPT   - DEWPOINT IN FAHRENHEIT
  RH     - RELATIVE HUMIDITY IN PERCENT
  WIND   - DIRECTION AND SPEED IN MPH
  PRES   - MEAN SEA LEVEL PRESSURE IN INCHES OF HG
  WCI    - WIND CHILL INDEX
  VSB    - VISIBILITY IN MILES
  HX     - HEAT INDEX
  TC     - TEMPERATURE IN CELSIUS
  VRB    - VARIABLE WIND DIRECTION
  N/A    - NOT AVAILABLE
  
      

Other recent Regional Weather Roundups

Fri Feb 26, 7:04am

Fri Feb 26, 6:04am

Fri Feb 26, 5:04am

Fri Feb 26, 4:04am

Fri Feb 26, 3:04am

Fri Feb 26, 2:04am

Fri Feb 26, 1:04am

Fri Feb 26, 12:04am

Thu Feb 25, 11:04pm

Thu Feb 25, 10:04pm

Thu Feb 25, 9:04pm

Thu Feb 25, 8:05pm

Thu Feb 25, 7:05pm

Thu Feb 25, 6:04pm

Thu Feb 25, 5:04pm

Thu Feb 25, 4:05pm

Thu Feb 25, 3:05pm

Thu Feb 25, 2:04pm

Thu Feb 25, 1:04pm

Thu Feb 25, 12:05pm

Thu Feb 25, 11:04am

Thu Feb 25, 10:04am

Thu Feb 25, 9:04am

Thu Feb 25, 8:04am

Thu Feb 25, 7:04am

Thu Feb 25, 6:04am

Thu Feb 25, 5:04am

Thu Feb 25, 4:04am

Thu Feb 25, 3:04am

Thu Feb 25, 2:04am

Thu Feb 25, 1:04am

Thu Feb 25, 12:04am

Wed Feb 24, 11:04pm

Wed Feb 24, 10:05pm

Wed Feb 24, 9:04pm

Wed Feb 24, 8:04pm

Wed Feb 24, 7:04pm

Wed Feb 24, 6:04pm

Wed Feb 24, 5:04pm

Wed Feb 24, 4:04pm

Wed Feb 24, 3:04pm

Wed Feb 24, 2:05pm

Wed Feb 24, 1:05pm

Wed Feb 24, 12:05pm

Wed Feb 24, 11:04am

Wed Feb 24, 10:04am

Wed Feb 24, 9:04am

Wed Feb 24, 8:04am

Wed Feb 24, 7:04am

Wed Feb 24, 6:04am

Wed Feb 24, 5:04am

Wed Feb 24, 4:04am

Wed Feb 24, 3:04am

Wed Feb 24, 2:04am

Wed Feb 24, 1:04am

Wed Feb 24, 12:04am

Tue Feb 23, 11:04pm

Tue Feb 23, 10:04pm

Tue Feb 23, 9:04pm

Tue Feb 23, 8:05pm

Tue Feb 23, 7:04pm

Tue Feb 23, 6:04pm

Tue Feb 23, 5:04pm

Tue Feb 23, 4:05pm

Tue Feb 23, 3:04pm

Tue Feb 23, 2:04pm

Tue Feb 23, 1:04pm

Tue Feb 23, 12:04pm

Tue Feb 23, 11:04am

Tue Feb 23, 10:04am

Tue Feb 23, 9:04am

Tue Feb 23, 7:04am

Tue Feb 23, 6:04am

Tue Feb 23, 5:04am

Tue Feb 23, 4:04am

Tue Feb 23, 3:04am

Tue Feb 23, 2:04am

Tue Feb 23, 1:04am

Tue Feb 23, 12:04am

Mon Feb 22, 11:04pm

Mon Feb 22, 10:04pm

Mon Feb 22, 9:04pm

Mon Feb 22, 8:04pm

Mon Feb 22, 7:04pm

Mon Feb 22, 6:04pm

Mon Feb 22, 5:04pm

Mon Feb 22, 4:05pm

Mon Feb 22, 3:04pm

Mon Feb 22, 2:05pm

Mon Feb 22, 1:04pm

Mon Feb 22, 12:05pm

Mon Feb 22, 11:04am

Mon Feb 22, 10:04am

Mon Feb 22, 9:05am

Mon Feb 22, 8:04am

Mon Feb 22, 7:04am

Mon Feb 22, 6:04am

Mon Feb 22, 5:04am

Mon Feb 22, 4:04am

Mon Feb 22, 3:04am

Mon Feb 22, 2:04am

Mon Feb 22, 1:04am

Mon Feb 22, 12:04am

Sun Feb 21, 11:04pm

Sun Feb 21, 10:05pm

Sun Feb 21, 9:04pm

Sun Feb 21, 8:04pm

Sun Feb 21, 7:04pm

Sun Feb 21, 6:04pm

Sun Feb 21, 5:04pm

Sun Feb 21, 4:05pm

Sun Feb 21, 3:04pm

Sun Feb 21, 2:04pm

Sun Feb 21, 12:05pm

Sun Feb 21, 11:04am

Sun Feb 21, 10:05am

Sun Feb 21, 9:04am

Sun Feb 21, 8:04am

Sun Feb 21, 7:04am

Sun Feb 21, 6:04am

Sun Feb 21, 5:04am

Sun Feb 21, 4:04am

Sun Feb 21, 3:04am

Sun Feb 21, 2:04am

Sun Feb 21, 1:04am

Sun Feb 21, 12:04am

Sat Feb 20, 11:04pm

Sat Feb 20, 10:04pm

Sat Feb 20, 9:04pm

Sat Feb 20, 8:04pm

Sat Feb 20, 7:04pm

Sat Feb 20, 6:04pm

Sat Feb 20, 5:04pm

Sat Feb 20, 4:05pm

Sat Feb 20, 3:04pm

Sat Feb 20, 2:04pm

Sat Feb 20, 1:05pm

Sat Feb 20, 12:05pm

Sat Feb 20, 11:04am

Sat Feb 20, 10:05am

Sat Feb 20, 9:04am

Sat Feb 20, 8:04am

Sat Feb 20, 7:04am

Sat Feb 20, 6:04am

Sat Feb 20, 5:04am

Sat Feb 20, 4:04am

Sat Feb 20, 3:04am

Sat Feb 20, 2:04am

Sat Feb 20, 1:04am

Sat Feb 20, 12:04am

Fri Feb 19, 11:04pm

Fri Feb 19, 10:05pm

Fri Feb 19, 9:04pm

Fri Feb 19, 8:04pm

Fri Feb 19, 7:04pm

Fri Feb 19, 6:04pm

Fri Feb 19, 5:04pm

Fri Feb 19, 4:05pm

Fri Feb 19, 3:04pm

Fri Feb 19, 2:04pm

Fri Feb 19, 1:05pm

Fri Feb 19, 12:05pm

Fri Feb 19, 11:04am

Fri Feb 19, 10:04am

Fri Feb 19, 9:04am

Fri Feb 19, 8:04am

Meta data:

ID: 2622797d-109a-4dee-a6c1-52ef71771901
Link: https://api.weather.gov/products/2622797d-109a-4dee-a6c1-52ef71771901